User: anonymous   Login
Location: Cranbrook Institute of Science
(42.5830°N, 83.2450°W)
Time: 12:31:29
(UTC-05:00)
Language:

ATLAS 5 CENTAUR R/B - Orbit

View from above orbital plane
View from above orbital plane
View from above satellite
View from above satellite

Ground track
Ground track

The orbit data is extracted from the following two-line orbital elements,

1 31702U 07027B   15064.11468942 0.00000100  00000-0  41572-4 0    07
2 31702  63.3770 134.3546 0175000 353.5707   6.4293 14.18302276    08
Epoch (UTC): 05 March 2015 02:45:09
Eccentricity: 0.0175000
inclination: 63.3770°
perigee height: 705 km
apogee height: 957 km
right ascension of ascending node: 134.3546°
argument of perigee: 353.5707°
revolutions per day: 14.18302276
mean anomaly at epoch: 6.4293°
orbit number at epoch: 0

The dashed part of the orbit path shows where the satellite is in the earth's shadow,  

DLR